When you browse on this site, cookies collect data to enhance your experience and personalize the content and advertising you see.
Visit our Privacy Policy to learn more. By continuing to use the site, you agree to this use of cookies and data.

Stündliche Wetter Kaposvár

Heute, 14 Juli, Dienstag

Zeit Temperatur Niederschläge Wind Luftdruck Luftfeuchtigkeit
00:00 +15°C° 0 mm 1 m/S 750 mmHg 71%
01:00 +13°C° 0 mm 0 m/S 750 mmHg 73%
02:00 +13°C° 0 mm 0 m/S 750 mmHg 76%
03:00 +12°C° 0 mm 0 m/S 749 mmHg 79%
04:00 +11°C° 0 mm 0 m/S 749 mmHg 82%
05:00 +14°C° 0 mm 1 m/S 749 mmHg 75%
06:00 +16°C° 0 mm 1 m/S 749 mmHg 68%
07:00 +19°C° 0 mm 1 m/S 749 mmHg 61%
08:00 +20°C° 0 mm 2 m/S 749 mmHg 55%
09:00 +21°C° 0 mm 2 m/S 749 mmHg 50%
10:00 +22°C° 0 mm 3 m/S 749 mmHg 44%
11:00 +24°C° 0 mm 3 m/S 748 mmHg 42%
12:00 +25°C° 0 mm 3 m/S 748 mmHg 40%
13:00 +25°C° 0 mm 3 m/S 748 mmHg 38%
14:00 +25°C° 0 mm 3 m/S 747 mmHg 38%
15:00 +25°C° 0 mm 3 m/S 747 mmHg 38%
16:00 +26°C° 0 mm 3 m/S 746 mmHg 38%
17:00 +24°C° 0 mm 3 m/S 746 mmHg 44%
18:00 +21°C° 0 mm 2 m/S 746 mmHg 51%
19:00 +20°C° 0 mm 2 m/S 746 mmHg 58%
20:00 +19°C° 0 mm 2 m/S 746 mmHg 62%
21:00 +17°C° 0 mm 2 m/S 746 mmHg 65%
22:00 +16°C° 0 mm 1 m/S 747 mmHg 69%
23:00 +15°C° 0 mm 1 m/S 747 mmHg 72%

Morgen, 15 Juli, Mittwoch

Zeit Temperatur Niederschläge Wind Luftdruck Luftfeuchtigkeit
00:00 +15°C° 0 mm 1 m/S 747 mmHg 75%
01:00 +14°C° 0 mm 1 m/S 747 mmHg 78%
02:00 +13°C° 0 mm 1 m/S 746 mmHg 79%
03:00 +13°C° 0 mm 1 m/S 746 mmHg 80%
04:00 +12°C° 0 mm 0 m/S 746 mmHg 81%
05:00 +15°C° 0 mm 1 m/S 746 mmHg 73%
06:00 +18°C° 0 mm 1 m/S 746 mmHg 66%
07:00 +20°C° 0 mm 1 m/S 747 mmHg 58%
08:00 +22°C° 0 mm 1 m/S 747 mmHg 53%
09:00 +24°C° 0 mm 1 m/S 747 mmHg 47%
10:00 +26°C° 0 mm 1 m/S 746 mmHg 42%
11:00 +27°C° 0 mm 1 m/S 746 mmHg 39%
12:00 +27°C° 0 mm 1 m/S 746 mmHg 36%
13:00 +28°C° 0 mm 1 m/S 746 mmHg 33%
14:00 +28°C° 0 mm 2 m/S 746 mmHg 33%
15:00 +28°C° 0 mm 2 m/S 745 mmHg 33%
16:00 +28°C° 0 mm 2 m/S 745 mmHg 33%
17:00 +26°C° 0 mm 2 m/S 745 mmHg 40%
18:00 +25°C° 0 mm 2 m/S 745 mmHg 48%
19:00 +23°C° 0 mm 2 m/S 745 mmHg 55%
20:00 +21°C° 0 mm 1 m/S 745 mmHg 59%
21:00 +20°C° 0 mm 1 m/S 745 mmHg 63%
22:00 +17°C° 0 mm 0 m/S 745 mmHg 67%
23:00 +16°C° 0 mm 0 m/S 745 mmHg 68%

übermorgen, 16 Juli, Donnerstag

Zeit Temperatur Niederschläge Wind Luftdruck Luftfeuchtigkeit
00:00 +18°C° 0 mm 1 m/S 745 mmHg 69%
01:00 +16°C° 0 mm 1 m/S 745 mmHg 70%
02:00 +16°C° 0 mm 1 m/S 745 mmHg 72%
03:00 +16°C° 0 mm 1 m/S 745 mmHg 73%
04:00 +16°C° 0 mm 2 m/S 745 mmHg 74%
05:00 +18°C° 0 mm 2 m/S 746 mmHg 70%
06:00 +19°C° 0 mm 3 m/S 746 mmHg 65%
07:00 +21°C° 0 mm 4 m/S 746 mmHg 61%
08:00 +22°C° 0 mm 4 m/S 746 mmHg 60%
09:00 +22°C° 0 mm 5 m/S 747 mmHg 58%
10:00 +23°C° 0 mm 5 m/S 747 mmHg 57%
11:00 +25°C° 0 mm 5 m/S 746 mmHg 54%
12:00 +25°C° 0 mm 4 m/S 746 mmHg 51%
13:00 +26°C° 0 mm 4 m/S 746 mmHg 48%
14:00 +26°C° 0 mm 4 m/S 746 mmHg 44%
15:00 +27°C° 0 mm 4 m/S 746 mmHg 41%
16:00 +28°C° 0 mm 4 m/S 746 mmHg 38%
17:00 +26°C° 0 mm 4 m/S 746 mmHg 44%
18:00 +25°C° 0 mm 3 m/S 746 mmHg 49%
19:00 +22°C° 0 mm 3 m/S 746 mmHg 55%
20:00 +21°C° 0 mm 3 m/S 746 mmHg 57%
21:00 +20°C° 0 mm 3 m/S 746 mmHg 60%
22:00 +19°C° 0 mm 3 m/S 747 mmHg 62%
23:00 +19°C° 0 mm 3 m/S 747 mmHg 63%

17 Juli, Freitag

Zeit Temperatur Niederschläge Wind Luftdruck Luftfeuchtigkeit
00:00 +19°C° 0 mm 3 m/S 747 mmHg 64%
01:00 +19°C° 0 mm 3 m/S 747 mmHg 65%
02:00 +19°C° 0 mm 3 m/S 747 mmHg 66%
03:00 +18°C° 0 mm 3 m/S 747 mmHg 68%
04:00 +18°C° 0 mm 3 m/S 747 mmHg 70%
05:00 +18°C° 0.1 mm 3 m/S 747 mmHg 71%
06:00 +18°C° 0.1 mm 3 m/S 748 mmHg 72%
07:00 +18°C° 0.1 mm 3 m/S 748 mmHg 73%
08:00 +19°C° 0 mm 3 m/S 748 mmHg 68%
09:00 +20°C° 0 mm 3 m/S 748 mmHg 62%
10:00 +21°C° 0 mm 2 m/S 748 mmHg 57%
11:00 +23°C° 0 mm 2 m/S 748 mmHg 51%
12:00 +25°C° 0 mm 2 m/S 748 mmHg 44%
13:00 +26°C° 0 mm 2 m/S 748 mmHg 38%
14:00 +26°C° 0 mm 2 m/S 747 mmHg 39%
15:00 +26°C° 0 mm 2 m/S 747 mmHg 39%
16:00 +26°C° 0 mm 2 m/S 746 mmHg 39%
17:00 +25°C° 0 mm 2 m/S 746 mmHg 45%
18:00 +24°C° 0 mm 2 m/S 746 mmHg 51%
19:00 +21°C° 0 mm 2 m/S 746 mmHg 56%
20:00 +20°C° 0 mm 3 m/S 747 mmHg 62%
21:00 +19°C° 0 mm 3 m/S 747 mmHg 67%
22:00 +18°C° 0 mm 3 m/S 747 mmHg 72%
23:00 +17°C° 0 mm 3 m/S 747 mmHg 73%

18 Juli, Samstag

Zeit Temperatur Niederschläge Wind Luftdruck Luftfeuchtigkeit
00:00 +17°C° 0 mm 3 m/S 747 mmHg 75%
01:00 +16°C° 0 mm 3 m/S 747 mmHg 76%
02:00 +16°C° 0 mm 3 m/S 747 mmHg 79%
03:00 +14°C° 0 mm 3 m/S 747 mmHg 82%
04:00 +14°C° 0 mm 3 m/S 747 mmHg 85%
05:00 +16°C° 0 mm 3 m/S 747 mmHg 80%
06:00 +18°C° 0 mm 4 m/S 747 mmHg 75%
07:00 +19°C° 0 mm 4 m/S 748 mmHg 69%
08:00 +20°C° 0.2 mm 4 m/S 747 mmHg 67%
09:00 +21°C° 0.2 mm 5 m/S 747 mmHg 66%
10:00 +22°C° 0.2 mm 5 m/S 747 mmHg 64%
11:00 +23°C° 0.3 mm 5 m/S 747 mmHg 58%
12:00 +25°C° 0.3 mm 4 m/S 747 mmHg 52%
13:00 +26°C° 0.3 mm 4 m/S 746 mmHg 46%
14:00 +26°C° 0 mm 4 m/S 746 mmHg 45%
15:00 +26°C° 0 mm 4 m/S 746 mmHg 44%
16:00 +26°C° 0 mm 4 m/S 746 mmHg 43%
17:00 +25°C° 0 mm 3 m/S 746 mmHg 48%
18:00 +23°C° 0 mm 2 m/S 746 mmHg 53%
19:00 +21°C° 0 mm 2 m/S 746 mmHg 58%
20:00 +21°C° 0 mm 1 m/S 747 mmHg 64%
21:00 +19°C° 0 mm 1 m/S 747 mmHg 69%
22:00 +16°C° 0 mm 1 m/S 747 mmHg 75%
23:00 +16°C° 0 mm 1 m/S 747 mmHg 77%

19 Juli, Sonntag

Zeit Temperatur Niederschläge Wind Luftdruck Luftfeuchtigkeit
00:00 +16°C° 0 mm 1 m/S 747 mmHg 78%
01:00 +15°C° 0 mm 1 m/S 748 mmHg 80%
02:00 +15°C° 0 mm 1 m/S 748 mmHg 82%
03:00 +15°C° 0 mm 1 m/S 748 mmHg 85%
04:00 +14°C° 0 mm 1 m/S 748 mmHg 87%
05:00 +16°C° 0 mm 2 m/S 748 mmHg 80%
06:00 +18°C° 0 mm 2 m/S 748 mmHg 73%
07:00 +20°C° 0 mm 2 m/S 748 mmHg 66%
08:00 +22°C° 0 mm 3 m/S 748 mmHg 58%
09:00 +25°C° 0 mm 3 m/S 748 mmHg 50%
10:00 +27°C° 0 mm 3 m/S 748 mmHg 42%
11:00 +28°C° 0 mm 3 m/S 748 mmHg 39%
12:00 +29°C° 0 mm 3 m/S 747 mmHg 37%
13:00 +29°C° 0 mm 3 m/S 747 mmHg 34%
14:00 +29°C° 0 mm 3 m/S 747 mmHg 35%
15:00 +29°C° 0 mm 3 m/S 746 mmHg 35%
16:00 +29°C° 0 mm 3 m/S 746 mmHg 35%
17:00 +28°C° 0 mm 2 m/S 746 mmHg 41%
18:00 +26°C° 0 mm 2 m/S 746 mmHg 47%
19:00 +25°C° 0 mm 2 m/S 746 mmHg 53%
20:00 +23°C° 0 mm 2 m/S 746 mmHg 58%
21:00 +21°C° 0 mm 2 m/S 747 mmHg 62%
22:00 +20°C° 0 mm 2 m/S 747 mmHg 67%
23:00 +19°C° 0 mm 2 m/S 747 mmHg 70%
Mehr zeigen